RH
11 10 9 8 8 8 8 8 9 12 14 15 16 16 17 18 19 19 21 21 22 20 32 46 48 48 56 57 50 58 90 72 70 75 79 79 78 72 72 71 63 48 51 54 56
12 11 10 9 8 8 7 7 8 8 8 10 13 15 16 17 18 19 18 20 21 21 28 42 45 46 52 50 51 54 77 65 62 71 77 73 74 78 77 72 63 46 51 51 55
13 11 10 10 9 8 7 7 8 8 8 8 8 10 13 15 18 18 18 19 20 21 23 38 39 37 46 48 52 52 60 63 57 60 69 73 75 73 74 75 64 47 52 51 52
14 13 11 10 9 8 7 7 9 9 9 8 8 8 8 13 21 14 17 17 20 21 22 32 35 41 40 54 45 71 53 60 60 58 64 67 76 72 79 84 65 48 49 52 52
15 14 13 11 10 9 8 7 8 9 9 9 8 8 8 11 16 14 15 16 19 21 22 30 37 39 39 47 46 49 55 57 60 55 61 64 74 82 75 70 69 59 48 51 55
14 14 14 13 11 10 9 8 8 8 9 8 8 8 9 13 12 13 15 15 19 20 20 26 32 30 31 48 45 47 49 56 58 61 61 61 68 71 74 68 73 60 52 53 54
13 13 13 12 11 10 9 9 7 8 8 8 9 8 10 15 13 13 12 17 20 18 18 21 26 26 35 49 40 48 52 52 57 58 63 59 66 67 76 69 72 73 67 54 54
12 13 13 13 12 10 8 8 9 8 8 9 10 10 15 11 14 11 11 17 17 17 17 17 22 23 23 47 34 44 43 52 56 54 61 59 69 80 66 69 74 76 66 60 54
12 12 12 14 13 12 10 8 8 9 10 11 11 11 15 10 12 13 12 15 15 17 17 18 20 22 27 34 50 50 44 49 46 50 55 61 72 69 67 66 72 77 69 62 58
15 13 11 11 13 15 13 10 9 8 10 12 13 15 13 11 14 15 12 13 15 16 17 17 20 25 25 38 47 50 46 45 46 44 50 56 62 62 61 60 69 73 73 73 72
17 15 13 11 11 13 16 13 13 13 10 12 16 12 13 11 16 15 13 12 13 15 18 17 20 23 26 38 34 39 33 36 42 38 35 49 53 57 59 55 63 71 71 72 70
18 16 15 12 11 11 14 18 16 18 16 10 12 15 15 15 15 15 16 15 14 13 15 20 20 20 24 24 26 30 29 37 39 34 34 40 44 54 58 57 58 61 66 71 76
19 17 15 15 12 11 14 18 16 15 14 14 13 13 15 14 16 18 15 16 15 13 15 16 22 20 20 23 21 21 25 36 36 29 24 32 49 57 51 51 53 58 62 68 68
19 17 15 14 14 15 16 18 16 17 17 18 14 13 15 16 16 22 17 18 17 16 15 16 16 19 17 19 20 21 29 33 28 25 33 59 43 53 55 53 47 52 59 62 63
20 19 16 14 18 19 21 19 20 20 24 21 17 16 14 15 19 18 22 21 22 19 16 17 16 16 17 18 19 19 27 30 26 26 32 34 39 39 50 46 51 56 51 58 62
22 19 18 17 18 22 22 22 24 25 28 22 22 18 18 18 23 27 25 25 23 22 18 16 18 16 14 15 16 20 24 27 28 31 33 29 29 34 36 45 40 42 46 48 58
21 20 19 16 21 19 22 23 24 24 24 25 25 23 23 21 24 27 28 27 24 23 21 20 17 16 15 14 16 20 24 36 38 37 33 31 33 28 26 32 32 39 37 41 49
21 21 19 17 17 19 23 25 27 26 22 24 25 25 22 23 26 27 29 28 24 23 23 27 26 24 20 16 19 20 22 30 31 25 22 26 27 26 28 32 35 36 33 40 45
21 21 23 19 16 20 24 25 28 27 23 23 23 25 24 25 29 30 28 29 27 25 26 28 28 26 23 19 17 27 24 24 25 22 22 20 24 24 21 25 29 36 39 42 46
23 25 22 20 19 23 25 27 27 24 22 22 25 29 33 29 28 31 33 29 29 29 28 27 31 32 30 24 19 18 26 26 24 26 28 24 25 24 25 30 37 38 43 43 46
23 29 24 23 23 26 27 29 27 24 24 24 25 28 29 32 36 33 36 36 35 33 31 29 31 32 32 27 22 21 20 24 24 24 25 24 22 24 25 32 36 40 48 53 48
27 33 25 24 28 28 30 28 25 24 26 24 26 26 30 33 33 32 32 37 38 34 34 35 34 33 32 31 28 23 23 24 26 29 30 28 23 22 24 26 34 36 41 42 43
29 27 24 25 32 33 31 28 27 28 27 28 27 28 29 30 32 31 34 38 35 33 34 34 35 35 33 29 30 27 27 27 24 25 28 29 26 31 26 28 27 32 42 42 42
27 33 30 26 27 28 30 30 30 29 27 28 30 30 30 29 31 31 32 36 34 31 34 34 35 36 32 30 38 37 35 28 27 27 27 27 25 29 33 35 29 36 41 45 46
23 24 22 30 30 26 26 27 28 28 30 31 30 31 32 36 37 36 38 35 37 36 32 34 36 37 34 34 35 40 48 44 34 30 32 29 29 32 40 33 35 33 41 45 45
28 27 25 24 23 23 27 25 30 27 30 28 33 31 35 36 35 41 41 46 43 41 44 38 40 40 37 35 37 35 36 37 34 33 37 39 32 34 37 36 42 36 44 42 45
29 29 28 30 24 24 27 28 26 26 24 24 26 28 29 31 34 33 35 38 40 42 44 46 44 46 41 39 40 40 36 36 34 33 32 33 41 35 34 36 39 35 42 41 45